Location: Antoign�
(47.0844°N, 0.1131°W)
Time: 07:26:33
(UTC+00:00)

MOS 1 - Pass Details

Date: 03 March 2021
Orbit: 878 x 892 km, 99.1° (Epoch: 11 April)

Event Time Altitude Azimuth Distance (km) Brightness Sun altitude
Exits shadow 19:25:59 21° 135° (SE) 1,911 5.6 -17.3°
Maximum altitude 19:29:41 51° 68° (ENE) 1,105 4.5 -17.9°
Drops below altitude 10° 19:35:10 10° 354° (N) 2,558 6.9 -18.8°
Sets 19:37:37 0° 350° (N) 3,499 7.7 -19.2°
